Weather History for KATT - June, 2013

Change the Weather History Date:

Tuesday, June 4, 2013

  Actual Average Record
Temperature  
Mean Temperature 82 °F 81 °F  
Max Temperature 94 °F 91 °F 99 °F (2008)
Min Temperature 70 °F 71 °F 56 °F (1903)
Degree Days  
Heating Degree Days 0 0  
Month to date heating degree days 0 0  
Since 1 June heating degree days 0 0  
Since 1 July heating degree days 1251 1539  
Cooling Degree Days 17 16  
Month to date cooling degree days 66 61  
Year to date cooling degree days 690 674  
Since 1 June cooling degree days 66 61  
Growing Degree Days 32 (Base 50)    
Moisture  
Dew Point 66 °F    
Average Humidity 67    
Maximum Humidity 97    
Minimum Humidity 36    
Precipitation  
Precipitation 0.00 in 0.17 in 2.03 in (1987)
Month to date precipitation 0.03 0.67  
Year to date precipitation 13.71 14.20  
Snow  
Snow 0.00 in - - ()
Month to date snowfall 0.0  
Since 1 June snowfall 0.0  
Since 1 July snowfall T  
Snow Depth 0.00 in    
Sea Level Pressure  
Sea Level Pressure 29.85 in    
Wind  
Wind Speed 6 mph (SSE)    
Max Wind Speed 13 mph    
Max Gust Speed 18 mph    
Visibility 10 miles    
Events      
T = Trace of Precipitation, MM = Missing Value Source: NWS Daily Summary

Daily Weather History Graph

Daily Weather History Graph

Search for Another Location

Airport or City:

Trip Planner

Search our weather history database for the weather conditions in past years. The results will help you decide how hot, cold, wet, or windy it might be!

Date:

Astronomy

Jun. 04, 2013 Rise Set
Actual Time 6:29 AM CDT 8:30 PM CDT
Civil Twilight 6:01 AM CDT 8:57 PM CDT
Nautical Twilight 5:28 AM CDT 9:30 PM CDT
Astronomical Twilight 4:53 AM CDT 10:05 PM CDT
Moon 3:46 AM CDT (6/4) 5:11 PM CDT (6/4)
Length of Visible Light 14h 55m
Length of Day
14h 00m
Waning Crescent, 14% of the Moon is Illuminated
Jun 4
Waning Crescent
Jun 8
New
Jun 16
First Quarter
Jun 23
Full
Jun 29
Last Quarter

Hourly Weather History & Observations

Time (CDT) Temp. Heat Index Dew Point Humidity Pressure Visibility Wind Dir Wind Speed Gust Speed Precip Events Conditions
12:51 AM 77.0 °F - 66.9 °F 71% 29.86 in 10.0 mi Variable 3.5 mph - N/A   Clear
1:51 AM 75.0 °F - 69.1 °F 82% 29.85 in 10.0 mi Variable 6.9 mph - N/A   Clear
2:51 AM 73.9 °F - 69.1 °F 85% 29.85 in 10.0 mi SSE 4.6 mph - N/A   Scattered Clouds
3:01 AM 73.9 °F - 69.1 °F 85% 29.89 in 10.0 mi Variable 4.6 mph - N/A   Mostly Cloudy
3:26 AM 73.0 °F - 69.1 °F 87% 29.89 in 10.0 mi South 3.5 mph - N/A   Partly Cloudy
3:51 AM 73.0 °F - 69.1 °F 87% 29.86 in 10.0 mi South 3.5 mph - N/A   Clear
4:51 AM 71.1 °F - 68.0 °F 90% 29.86 in 8.0 mi Calm Calm - N/A   Clear
5:51 AM 70.0 °F - 68.0 °F 93% 29.85 in 6.0 mi Calm Calm - N/A   Clear
6:51 AM 70.0 °F - 68.0 °F 93% 29.85 in 5.0 mi Variable 3.5 mph - N/A   Clear
7:51 AM 73.0 °F - 69.1 °F 87% 29.86 in 8.0 mi Calm Calm - N/A   Clear
8:51 AM 77.0 °F - 68.0 °F 74% 29.88 in 10.0 mi Variable 6.9 mph - N/A   Clear
9:51 AM 81.0 °F 83.0 °F 66.0 °F 60% 29.89 in 10.0 mi SSE 10.4 mph 16.1 mph N/A   Clear
10:51 AM 82.9 °F 85.4 °F 66.9 °F 58% 29.89 in 10.0 mi South 8.1 mph - N/A   Clear
11:51 AM 84.9 °F 87.1 °F 66.0 °F 53% 29.89 in 10.0 mi SE 10.4 mph 18.4 mph N/A   Clear
12:51 PM 87.1 °F 90.6 °F 68.0 °F 53% 29.89 in 10.0 mi Variable 6.9 mph - N/A   Clear
1:51 PM 89.1 °F 91.3 °F 66.0 °F 46% 29.87 in 10.0 mi SE 9.2 mph - N/A   Clear
2:51 PM 91.0 °F 93.0 °F 64.9 °F 42% 29.84 in 10.0 mi Variable 4.6 mph - N/A   Clear
3:51 PM 93.0 °F 94.6 °F 64.0 °F 38% 29.82 in 10.0 mi SE 8.1 mph - N/A   Clear
4:51 PM 93.0 °F 94.2 °F 63.0 °F 37% 29.80 in 10.0 mi Variable 5.8 mph - N/A   Clear
5:51 PM 91.9 °F 92.5 °F 62.1 °F 37% 29.78 in 10.0 mi Variable 5.8 mph - N/A   Clear
6:51 PM 91.0 °F 91.5 °F 62.1 °F 38% 29.77 in 10.0 mi South 8.1 mph - N/A   Clear
7:51 PM 88.0 °F 87.9 °F 61.0 °F 40% 29.78 in 10.0 mi South 5.8 mph - N/A   Clear
8:51 PM 86.0 °F 87.3 °F 64.0 °F 48% 29.79 in 10.0 mi SSE 6.9 mph - N/A   Clear
9:51 PM 84.0 °F 85.8 °F 64.9 °F 53% 29.79 in 10.0 mi SE 9.2 mph - N/A   Clear
10:51 PM 82.0 °F 83.8 °F 64.9 °F 56% 29.83 in 10.0 mi SE 6.9 mph - N/A   Clear
11:51 PM 79.0 °F - 64.9 °F 62% 29.86 in 10.0 mi Variable 5.8 mph - N/A   Clear